Location: Bakhuizen
(52.8696°N, 5.4575°E)
Time: 20:50:34
(UTC+00:00)

CZ-2C R/B - Pass Details

Date: 11 May 2021
Orbit: 640 x 703 km, 98.3° (Epoch: 21 June)

Event Time Altitude Azimuth Distance (km) Brightness Sun altitude
Rises 21:07:01 0° 12° (NNE) 2,971 7.7 -12.2°
Reaches altitude 10° 21:09:15 10° 9° (N) 2,061 6.9 -12.4°
Maximum altitude 21:13:39 59° 290° (WNW) 757 4.3 -12.8°
Drops below altitude 10° 21:18:06 10° 212° (SSW) 2,077 6.0 -13.1°
Sets 21:20:21 0° 208° (SSW) 2,995 6.8 -13.3°
